SWA1517 KMCO-KMIA

Flight info

Callsign SWA1517
Flight time 0h 39m
Altitude 25000
Route DDANY3 DDANY CSTAL3
Aircraft B738/M-SADE2E3GIJ4RWZ/LB1D1

Departure

Time 2026-04-25 19:57
Airport Orlando International Airport (KMCO)

Arrival

Time 2026-04-25 20:37
Airport Miami International Airport (KMIA)
Time Latitude Longitude Altitude Speed Heading
2026-04-25 19:38 28.43595 -81.30332 100 ft 0 kts 165°
2026-04-25 19:49 28.43603 -81.30334 99 ft 2 kts 165°
2026-04-25 19:49 28.43619 -81.30339 99 ft 2 kts 165°
2026-04-25 19:50 28.43650 -81.30348 98 ft 2 kts 165°
2026-04-25 19:50 28.43665 -81.30352 100 ft 0 kts 165°
2026-04-25 19:53 28.43664 -81.30352 100 ft 0 kts 165°
2026-04-25 19:53 28.43663 -81.30339 99 ft 4 kts 80°
2026-04-25 19:53 28.43710 -81.30272 100 ft 14 kts 51°
2026-04-25 19:53 28.43788 -81.30202 100 ft 14 kts 23°
2026-04-25 19:54 28.43877 -81.30160 101 ft 14 kts 32°
2026-04-25 19:54 28.43898 -81.30061 102 ft 13 kts 85°
2026-04-25 19:54 28.43883 -81.29961 101 ft 13 kts 111°
2026-04-25 19:54 28.43852 -81.29902 102 ft 15 kts 129°
2026-04-25 19:55 28.43719 -81.29811 102 ft 19 kts 169°
2026-04-25 19:55 28.43581 -81.29796 103 ft 21 kts 152°
2026-04-25 19:55 28.43551 -81.29699 102 ft 1 kts 90°
2026-04-25 19:55 28.43551 -81.29695 102 ft 0 kts 90°
2026-04-25 19:56 28.43552 -81.29654 102 ft 12 kts 90°
2026-04-25 19:56 28.43512 -81.29587 104 ft 0 kts 175°
2026-04-25 19:57 28.43508 -81.29587 104 ft 4 kts 177°
2026-04-25 19:57 28.43341 -81.29585 107 ft 58 kts 179°
2026-04-25 19:57 28.42592 -81.29578 102 ft 154 kts 179°
2026-04-25 19:57 28.41363 -81.29557 772 ft 188 kts 179°
2026-04-25 19:58 28.39985 -81.29513 1830 ft 202 kts 178°
2026-04-25 19:58 28.38462 -81.29353 2384 ft 234 kts 162°
2026-04-25 19:58 28.37031 -81.28424 3356 ft 240 kts 147°
2026-04-25 19:58 28.35624 -81.27372 4338 ft 243 kts 148°
2026-04-25 19:59 28.34218 -81.26256 5247 ft 248 kts 141°
2026-04-25 19:59 28.32943 -81.24910 6138 ft 252 kts 137°
2026-04-25 19:59 28.31678 -81.23504 6965 ft 257 kts 137°
2026-04-25 19:59 28.30401 -81.22075 7741 ft 263 kts 136°
2026-04-25 20:00 28.29086 -81.20604 8548 ft 267 kts 136°
2026-04-25 20:00 28.28190 -81.19603 8952 ft 269 kts 137°
2026-04-25 20:00 28.26397 -81.17610 9593 ft 276 kts 137°
2026-04-25 20:00 28.25011 -81.16070 10092 ft 279 kts 137°
2026-04-25 20:01 28.22224 -81.12970 11174 ft 286 kts 137°
2026-04-25 20:01 28.20785 -81.11371 11742 ft 290 kts 137°
2026-04-25 20:01 28.19336 -81.09762 12302 ft 293 kts 137°
2026-04-25 20:02 28.17870 -81.08133 12794 ft 297 kts 137°
2026-04-25 20:02 28.16383 -81.06482 13320 ft 300 kts 137°
2026-04-25 20:02 28.14880 -81.04813 13825 ft 304 kts 137°
2026-04-25 20:02 28.13362 -81.03129 14300 ft 307 kts 137°
2026-04-25 20:03 28.11851 -81.01453 14787 ft 309 kts 137°
2026-04-25 20:03 28.10309 -80.99743 15285 ft 312 kts 137°
2026-04-25 20:03 28.08749 -80.98015 15777 ft 314 kts 136°
2026-04-25 20:03 28.07179 -80.96275 16261 ft 317 kts 136°
2026-04-25 20:04 28.05593 -80.94518 16741 ft 320 kts 136°
2026-04-25 20:04 28.03991 -80.92746 17206 ft 322 kts 136°
2026-04-25 20:04 28.02381 -80.90964 17664 ft 325 kts 136°
2026-04-25 20:04 28.00777 -80.89191 18122 ft 328 kts 136°
2026-04-25 20:05 27.99139 -80.87380 18528 ft 330 kts 136°
2026-04-25 20:05 27.97494 -80.85563 18950 ft 331 kts 136°
2026-04-25 20:05 27.95844 -80.83741 19362 ft 332 kts 136°
2026-04-25 20:05 27.94188 -80.81912 19774 ft 334 kts 136°
2026-04-25 20:06 27.92521 -80.80073 20163 ft 335 kts 136°
2026-04-25 20:06 27.90847 -80.78226 20546 ft 337 kts 136°
2026-04-25 20:06 27.89163 -80.76370 20916 ft 339 kts 136°
2026-04-25 20:06 27.87471 -80.74506 21280 ft 340 kts 136°
2026-04-25 20:07 27.85767 -80.72629 21623 ft 344 kts 136°
2026-04-25 20:07 27.84040 -80.70728 21864 ft 353 kts 136°
2026-04-25 20:07 27.82231 -80.68738 21936 ft 372 kts 136°
2026-04-25 20:07 27.80348 -80.66669 22075 ft 392 kts 136°
2026-04-25 20:08 27.78346 -80.64468 22220 ft 410 kts 136°
2026-04-25 20:08 27.76260 -80.62176 22421 ft 425 kts 136°
2026-04-25 20:08 27.74122 -80.59827 22883 ft 431 kts 136°
2026-04-25 20:08 27.71967 -80.57461 23547 ft 433 kts 136°
2026-04-25 20:09 27.69803 -80.55086 24054 ft 435 kts 136°
2026-04-25 20:09 27.67620 -80.52693 24472 ft 440 kts 136°
2026-04-25 20:09 27.65227 -80.50532 24843 ft 444 kts 151°
2026-04-25 20:09 27.62383 -80.49143 24949 ft 446 kts 161°
2026-04-25 20:10 27.59440 -80.47996 24953 ft 446 kts 162°
2026-04-25 20:10 27.56496 -80.46893 24956 ft 446 kts 163°
2026-04-25 20:10 27.53551 -80.45787 24949 ft 446 kts 162°
2026-04-25 20:10 27.50653 -80.44679 24956 ft 445 kts 162°
2026-04-25 20:11 27.47716 -80.43537 24950 ft 445 kts 162°
2026-04-25 20:11 27.44787 -80.42385 24950 ft 445 kts 162°
2026-04-25 20:11 27.41859 -80.41227 24956 ft 445 kts 162°
2026-04-25 20:11 27.38933 -80.40068 24963 ft 446 kts 162°
2026-04-25 20:12 27.35999 -80.38907 24949 ft 446 kts 162°
2026-04-25 20:12 27.33075 -80.37752 24947 ft 446 kts 162°
2026-04-25 20:12 27.30164 -80.36602 24763 ft 437 kts 162°
2026-04-25 20:12 27.29236 -80.36235 24685 ft 435 kts 162°
2026-04-25 20:13 27.24544 -80.34385 24321 ft 428 kts 162°
2026-04-25 20:13 27.21738 -80.33280 24091 ft 428 kts 162°
2026-04-25 20:13 27.18927 -80.32179 23887 ft 427 kts 162°
2026-04-25 20:13 27.16123 -80.31089 23672 ft 424 kts 162°
2026-04-25 20:14 27.13338 -80.30009 23431 ft 422 kts 162°
2026-04-25 20:14 27.10570 -80.28937 23168 ft 421 kts 162°
2026-04-25 20:14 27.07802 -80.27864 22898 ft 420 kts 162°
2026-04-25 20:14 27.05043 -80.26795 22633 ft 419 kts 162°
2026-04-25 20:15 27.02293 -80.25728 22376 ft 418 kts 162°
2026-04-25 20:15 26.99549 -80.24665 22118 ft 417 kts 162°
2026-04-25 20:15 26.96813 -80.23605 21859 ft 416 kts 162°
2026-04-25 20:15 26.94083 -80.22548 21608 ft 414 kts 162°
2026-04-25 20:16 26.91363 -80.21495 21360 ft 413 kts 162°
2026-04-25 20:16 26.88654 -80.20447 21110 ft 411 kts 162°
2026-04-25 20:16 26.85951 -80.19403 20867 ft 410 kts 163°
2026-04-25 20:16 26.83249 -80.18386 20618 ft 408 kts 163°
2026-04-25 20:17 26.80558 -80.17394 20379 ft 407 kts 163°
2026-04-25 20:17 26.77880 -80.16409 20010 ft 402 kts 163°
2026-04-25 20:17 26.75290 -80.15452 19534 ft 394 kts 163°
2026-04-25 20:17 26.72709 -80.14496 19095 ft 386 kts 163°
2026-04-25 20:18 26.70202 -80.13598 18806 ft 374 kts 166°
2026-04-25 20:18 26.67693 -80.12896 18334 ft 369 kts 169°
2026-04-25 20:18 26.65203 -80.12267 17795 ft 366 kts 169°
2026-04-25 20:18 26.62736 -80.11629 17314 ft 361 kts 169°
2026-04-25 20:19 26.60300 -80.10980 16874 ft 358 kts 168°
2026-04-25 20:19 26.57879 -80.10350 16423 ft 358 kts 169°
2026-04-25 20:19 26.55416 -80.09738 15963 ft 367 kts 169°
2026-04-25 20:19 26.52900 -80.09120 15756 ft 372 kts 169°
2026-04-25 20:20 26.50355 -80.08497 15824 ft 376 kts 169°
2026-04-25 20:20 26.47783 -80.07867 15845 ft 379 kts 169°
2026-04-25 20:20 26.45210 -80.07238 15841 ft 378 kts 170°
2026-04-25 20:20 26.42695 -80.06674 15734 ft 366 kts 171°
2026-04-25 20:21 26.40218 -80.06153 15461 ft 357 kts 172°
2026-04-25 20:21 26.37796 -80.05607 15211 ft 353 kts 169°
2026-04-25 20:21 26.35422 -80.04953 14969 ft 347 kts 168°
2026-04-25 20:21 26.33108 -80.04295 14731 ft 340 kts 168°
2026-04-25 20:22 26.30849 -80.03656 14486 ft 332 kts 168°
2026-04-25 20:22 26.30092 -80.03445 14404 ft 329 kts 168°
2026-04-25 20:22 26.26443 -80.02451 14011 ft 321 kts 171°
2026-04-25 20:22 26.24258 -80.02384 13762 ft 313 kts 192°
2026-04-25 20:23 26.22139 -80.02841 13538 ft 315 kts 195°
2026-04-25 20:23 26.19962 -80.03365 13280 ft 317 kts 195°
2026-04-25 20:23 26.17812 -80.03884 13018 ft 314 kts 195°
2026-04-25 20:23 26.15712 -80.04381 12765 ft 312 kts 195°
2026-04-25 20:24 26.13598 -80.04873 12495 ft 310 kts 194°
2026-04-25 20:24 26.11489 -80.05358 12240 ft 308 kts 194°
2026-04-25 20:24 26.09391 -80.05838 11988 ft 306 kts 194°
2026-04-25 20:24 26.07383 -80.06295 11740 ft 300 kts 194°
2026-04-25 20:25 26.05354 -80.06788 11414 ft 295 kts 196°
2026-04-25 20:25 26.03367 -80.07307 11093 ft 291 kts 196°
2026-04-25 20:25 26.01427 -80.07820 10772 ft 288 kts 196°
2026-04-25 20:25 25.99486 -80.08330 10450 ft 285 kts 196°
2026-04-25 20:26 25.97565 -80.08832 10192 ft 280 kts 195°
2026-04-25 20:26 25.96326 -80.09153 10110 ft 273 kts 195°
2026-04-25 20:26 25.94484 -80.09631 9936 ft 272 kts 195°
2026-04-25 20:26 25.92652 -80.10211 9607 ft 275 kts 209°
2026-04-25 20:27 25.91153 -80.11499 9313 ft 274 kts 229°
2026-04-25 20:27 25.89875 -80.13072 9013 ft 273 kts 230°
2026-04-25 20:27 25.88644 -80.14666 8674 ft 269 kts 237°
2026-04-25 20:27 25.87939 -80.16539 8363 ft 261 kts 261°
2026-04-25 20:28 25.87799 -80.18509 8115 ft 257 kts 269°
2026-04-25 20:28 25.87774 -80.20484 7819 ft 253 kts 270°
2026-04-25 20:28 25.87736 -80.22423 7520 ft 248 kts 269°
2026-04-25 20:28 25.87686 -80.24323 7211 ft 244 kts 269°
2026-04-25 20:29 25.87630 -80.26191 6929 ft 239 kts 269°
2026-04-25 20:29 25.87575 -80.28062 6391 ft 249 kts 270°
2026-04-25 20:29 25.87954 -80.29925 6292 ft 244 kts 295°
2026-04-25 20:29 25.88726 -80.31555 5974 ft 243 kts 298°
2026-04-25 20:30 25.89555 -80.33215 5523 ft 243 kts 299°
2026-04-25 20:30 25.90362 -80.34839 5126 ft 237 kts 298°
2026-04-25 20:30 25.91143 -80.36426 4726 ft 232 kts 298°
2026-04-25 20:30 25.91908 -80.37989 4322 ft 229 kts 298°
2026-04-25 20:31 25.92667 -80.39546 3911 ft 229 kts 298°
2026-04-25 20:31 25.93428 -80.41110 3514 ft 231 kts 296°
2026-04-25 20:31 25.93795 -80.42834 3165 ft 229 kts 271°
2026-04-25 20:31 25.93483 -80.44522 3003 ft 224 kts 236°
2026-04-25 20:32 25.92412 -80.45735 3001 ft 223 kts 208°
2026-04-25 20:32 25.91036 -80.46494 2994 ft 220 kts 202°
2026-04-25 20:32 25.89651 -80.47218 2997 ft 221 kts 203°
2026-04-25 20:32 25.88209 -80.47671 2998 ft 219 kts 177°
2026-04-25 20:33 25.86790 -80.47206 2976 ft 209 kts 144°
2026-04-25 20:33 25.85939 -80.45991 2811 ft 198 kts 109°
2026-04-25 20:33 25.85617 -80.44548 2610 ft 189 kts 102°
2026-04-25 20:33 25.85455 -80.43606 2541 ft 185 kts 101°
2026-04-25 20:34 25.85155 -80.41797 2245 ft 168 kts 102°
2026-04-25 20:34 25.84951 -80.40564 2122 ft 159 kts 102°
2026-04-25 20:34 25.84645 -80.39419 2018 ft 154 kts 122°
2026-04-25 20:34 25.84072 -80.38364 1975 ft 168 kts 121°
2026-04-25 20:35 25.83480 -80.37200 1522 ft 176 kts 121°
2026-04-25 20:35 25.82908 -80.36062 1266 ft 162 kts 121°
2026-04-25 20:35 25.82377 -80.35019 1039 ft 148 kts 121°
2026-04-25 20:35 25.81875 -80.34051 782 ft 141 kts 120°
2026-04-25 20:36 25.81418 -80.33131 568 ft 133 kts 120°
2026-04-25 20:36 25.80980 -80.32248 397 ft 127 kts 120°
2026-04-25 20:36 25.80558 -80.31423 290 ft 124 kts 120°
2026-04-25 20:36 25.80109 -80.30581 126 ft 128 kts 119°
2026-04-25 20:37 25.79676 -80.29744 15 ft 118 kts 118°
2026-04-25 20:37 25.79428 -80.29252 14 ft 45 kts 120°
2026-04-25 20:37 25.79304 -80.28987 13 ft 24 kts 97°
2026-04-25 20:37 25.79331 -80.28871 15 ft 0 kts 60°
2026-04-25 20:39 25.79360 -80.28816 16 ft 21 kts 60°
2026-04-25 20:39 25.79337 -80.28640 14 ft 28 kts 119°
2026-04-25 20:39 25.79261 -80.28492 14 ft 18 kts 120°
2026-04-25 20:39 25.79218 -80.28413 14 ft 17 kts 131°
2026-04-25 20:40 25.79120 -80.28281 15 ft 17 kts 123°
2026-04-25 20:40 25.79061 -80.28173 15 ft 16 kts 113°
2026-04-25 20:40 25.79068 -80.28055 14 ft 15 kts 100°
2026-04-25 20:40 25.79061 -80.28009 14 ft 2 kts 81°
2026-04-25 20:41 25.79069 -80.27985 14 ft 5 kts 67°
2026-04-25 20:41 25.79072 -80.27978 16 ft 0 kts 66°